Theta_e
315 315 315 314 314 313 313 314 314 314 314 314 314 315 315 315 315 316 316 316 317 317 317 318 319 320 321 318 318 333 344 333 320 320 317 314 312 312 309 311 311 309 311 311 312 312 315
314 314 313 313 313 312 312 312 313 313 314 314 315 314 314 314 315 315 316 316 316 315 316 317 318 319 321 312 325 331 328 321 318 320 318 316 313 316 313 311 310 311 312 311 312 312 314
313 313 312 312 312 311 311 312 312 312 313 313 314 314 313 314 314 315 315 315 314 315 318 319 319 322 318 315 324 327 324 319 321 320 316 317 319 315 316 311 314 313 309 314 315 314 312
312 312 312 312 311 311 311 311 311 311 311 312 313 313 312 313 313 314 315 314 314 317 319 319 320 323 314 322 325 324 322 319 320 321 319 319 319 317 315 316 312 312 313 309 315 314 319
311 311 311 311 311 310 311 311 311 311 311 311 312 312 312 312 313 313 314 312 314 322 319 320 322 320 312 319 318 324 322 316 318 319 320 319 318 314 314 310 307 309 305 309 313 319 319
310 310 310 310 310 310 310 310 311 310 311 311 312 311 312 312 312 312 312 311 319 321 321 323 320 314 316 313 320 322 324 321 317 316 315 314 313 310 310 307 301 304 304 308 312 317 319
309 309 309 309 309 308 309 310 310 310 310 310 311 311 311 311 312 311 313 320 318 317 318 312 315 312 313 320 323 321 322 319 318 315 308 312 307 305 307 309 310 309 307 306 309 317 315
309 309 309 309 309 308 310 310 309 309 310 310 310 310 311 311 311 311 314 314 313 315 309 317 315 316 317 320 313 317 322 314 313 308 310 309 305 310 311 310 308 309 306 307 314 318 316
308 309 309 308 308 309 309 309 309 310 310 310 310 310 310 311 310 315 314 311 319 319 309 311 314 315 316 317 313 315 318 315 312 308 308 306 308 310 308 307 306 308 307 310 309 314 316
308 308 308 308 309 309 308 308 308 309 309 310 309 309 310 309 309 314 311 319 320 320 305 308 309 312 316 317 311 319 320 315 312 308 309 308 311 308 307 306 307 304 310 311 312 309 303
307 307 307 309 308 308 308 308 308 309 309 309 309 309 309 307 312 311 314 318 320 319 295 309 310 319 315 312 314 314 320 315 309 308 309 306 308 307 306 307 309 306 311 310 311 308 310
307 307 307 307 307 308 308 308 308 308 308 308 308 309 308 314 315 317 318 316 316 303 295 306 312 309 309 310 312 315 314 316 315 309 309 309 313 310 309 311 311 314 310 311 312 309 301
306 306 306 306 307 307 307 307 307 307 307 308 308 307 308 315 312 317 319 314 302 297 307 304 307 310 308 307 309 311 309 307 306 302 303 307 308 311 312 308 311 312 309 301 299 298 297
306 306 306 306 307 307 307 307 307 307 307 307 306 305 313 316 319 317 315 307 297 303 305 309 309 310 306 308 308 309 308 305 309 308 305 302 300 308 311 309 307 308 308 301 292 295 298
305 305 305 305 306 306 306 306 306 306 306 305 305 317 317 326 324 319 308 298 300 305 308 305 307 306 306 307 308 307 307 306 308 310 304 304 304 311 311 312 312 307 304 310 303 305 300
305 305 305 306 306 306 306 306 306 306 306 305 309 315 320 324 327 316 303 296 303 309 308 308 303 307 304 306 305 306 306 309 308 311 313 309 303 308 310 311 311 310 312 302 303 295 294
305 305 305 305 306 306 306 306 306 306 305 304 311 309 320 324 322 312 299 301 303 307 310 306 305 305 307 307 307 306 306 309 310 310 312 311 309 306 309 306 305 306 305 307 307 305 297
305 305 305 305 306 306 306 306 306 305 304 306 311 304 319 325 310 310 304 305 302 305 309 308 309 308 307 308 307 307 306 309 312 312 307 311 310 304 305 310 312 312 307 308 301 300 304
304 305 305 305 306 306 306 306 305 305 304 305 304 308 322 321 304 307 310 307 307 305 306 307 306 308 310 308 306 308 309 312 312 311 309 312 307 302 302 308 311 308 309 310 310 309 303
305 305 305 305 306 306 306 306 305 305 304 307 307 302 313 315 313 309 308 307 306 309 307 307 307 309 308 307 310 309 309 311 312 312 317 316 310 306 300 304 308 305 306 308 308 303 302
305 305 305 304 305 305 306 306 305 304 304 307 307 304 307 300 305 306 309 309 305 305 310 311 307 306 306 305 306 307 311 311 312 311 314 316 306 308 308 308 307 305 305 306 305 306 303
304 305 305 304 305 304 305 306 306 305 303 308 299 299 301 298 302 302 303 306 306 307 308 307 305 308 311 307 308 307 310 313 310 313 313 316 307 308 305 308 307 306 307 306 307 307 307
304 304 305 304 304 304 304 305 305 305 304 304 304 305 301 298 300 300 302 305 305 308 309 311 309 308 308 311 315 317 316 317 317 314 313 313 310 306 301 306 305 301 305 306 308 309 308
303 304 304 304 304 304 304 304 305 305 304 305 305 302 299 294 297 297 298 298 299 303 304 308 309 308 314 320 319 318 317 315 316 315 319 313 312 309 303 304 295 307 312 311 309 310 310
302 303 304 304 304 304 304 304 304 304 304 304 306 301 297 292 296 295 298 298 299 302 302 306 309 313 316 314 310 307 307 309 310 312 314 319 314 308 302 301 305 307 309 308 307 307 311
302 303 303 303 304 304 304 304 304 304 305 304 306 305 300 294 296 297 296 298 297 299 301 304 312 315 314 312 308 301 295 302 302 306 314 314 316 308 305 300 296 307 311 314 312 302 311
302 302 303 303 303 304 304 304 304 304 304 304 306 307 300 295 298 299 294 295 298 298 297 301 302 305 314 307 304 303 302 305 300 300 304 306 306 303 301 301 304 312 314 314 300 303 314
302 302 302 303 303 303 303 304 304 303 303 303 303 307 300 295 296 298 299 297 298 298 295 300 299 304 306 304 304 305 304 304 306 308 303 303 301 299 302 298 298 314 312 306 315 318 316
302 302 302 303 303 303 303 303 304 304 303 303 300 305 303 294 296 301 301 302 300 300 299 300 298 299 305 305 309 305 298 305 305 301 309 301 311 309 309 309 313 318 317 323 322 317 317
Wind_Speed
20 20 20 20 20 20 20 20 19 20 20 21 22 22 22 22 21 21 21 20 19 19 17 15 12 9 9 10 10 11 10 10 11 12 14 12 14 14 14 11 11 14 10 8 5 6 12
19 19 20 20 20 20 20 21 20 19 20 20 20 22 23 23 22 22 21 20 19 19 18 14 11 7 11 16 8 10 10 15 14 14 14 12 11 12 12 10 11 14 7 10 11 12 14
19 19 19 19 20 21 21 21 21 22 21 21 21 22 23 23 23 23 22 21 21 20 16 11 9 8 12 14 1 7 11 14 14 13 10 13 6 6 9 8 8 4 10 9 11 16 12
18 19 19 19 20 22 22 22 22 22 22 22 22 22 24 24 24 24 24 23 22 17 10 7 8 10 10 5 5 9 11 9 7 9 8 2 9 14 11 3 8 14 18 14 12 14 12
18 19 19 20 20 22 22 22 23 23 23 24 22 23 24 25 25 25 24 24 21 10 4 7 9 9 15 6 11 12 11 11 12 10 6 3 10 15 13 10 14 14 14 20 15 16 15
18 19 19 20 20 21 22 22 23 24 25 25 24 24 24 25 26 25 26 23 6 6 8 9 10 9 14 13 15 13 13 8 12 12 11 12 10 12 13 14 15 16 17 16 16 15 15
18 18 19 20 21 22 23 23 24 24 25 26 25 25 25 26 25 24 18 7 8 10 12 14 6 13 6 8 6 12 14 13 14 13 15 16 14 14 18 19 20 15 16 5 3 20 17
18 19 20 21 21 23 22 22 24 25 26 26 27 27 27 27 26 24 10 8 9 8 11 17 20 16 8 5 13 17 17 16 16 16 17 13 16 16 16 13 14 14 8 8 10 4 12
18 19 20 21 22 22 23 23 24 24 25 26 26 26 27 29 29 12 9 14 9 7 9 16 21 21 18 14 15 17 19 20 17 17 17 16 11 18 8 11 10 16 15 13 11 10 12
18 19 20 20 19 21 25 26 26 26 26 26 26 26 25 31 11 11 9 5 5 7 9 12 12 12 20 16 20 18 20 20 16 17 15 14 15 8 12 18 16 16 16 10 11 12 10
19 19 20 19 21 23 24 26 28 28 27 27 27 26 24 12 14 8 8 7 9 5 8 11 13 9 15 22 10 22 17 22 18 14 14 15 13 11 15 14 17 18 12 7 10 14 12
18 19 20 21 23 24 24 25 27 28 29 30 29 27 25 6 10 13 12 9 7 9 12 9 10 12 16 23 22 18 16 19 13 17 16 18 9 16 16 15 17 8 11 10 12 14 13
18 19 21 22 22 23 24 25 28 29 31 32 32 32 16 10 5 8 7 8 9 12 7 10 10 14 18 20 23 17 21 19 16 16 16 15 12 16 4 11 8 11 11 10 13 14 13
17 19 20 21 21 22 24 26 28 30 32 34 36 33 3 9 7 7 7 11 15 9 18 4 5 13 17 18 23 20 20 19 21 17 13 15 17 16 14 13 10 17 14 14 5 14 9
17 18 20 22 22 22 24 26 29 31 34 37 36 5 5 3 5 6 8 13 16 16 11 12 12 12 15 19 16 17 22 20 21 21 18 14 15 19 18 16 17 15 19 8 11 8 10
16 18 19 20 21 23 25 27 29 32 34 37 12 9 1 6 4 7 10 16 18 23 6 11 15 14 17 19 20 20 19 20 20 21 18 8 9 14 12 8 10 12 10 8 9 13 13
16 18 19 20 20 22 24 25 29 31 34 38 7 7 7 6 5 8 11 15 18 25 6 13 18 18 11 17 21 20 21 15 20 19 19 14 10 14 15 16 16 12 11 8 5 6 11
15 17 18 20 20 21 23 25 27 29 33 14 8 7 6 4 8 9 13 16 15 14 17 13 18 14 10 14 18 20 20 19 13 18 19 17 7 10 17 20 15 13 17 18 10 15 5
15 16 18 19 19 20 22 24 26 27 24 10 8 8 7 4 8 10 9 13 12 12 16 18 16 17 16 10 13 15 17 19 17 19 18 14 10 13 9 9 10 12 10 8 19 4 13
14 15 17 18 18 19 20 23 26 28 26 10 7 6 3 5 6 9 15 12 15 9 12 18 17 16 18 15 14 11 16 8 9 11 7 7 14 18 13 17 16 19 19 15 9 8 11
14 14 16 17 18 18 20 21 24 29 31 9 4 5 5 8 7 12 14 15 17 13 7 12 10 16 19 18 19 18 17 9 8 8 8 11 17 20 21 12 16 11 16 17 16 15 14
14 15 13 15 16 18 19 19 21 27 36 3 8 6 8 13 13 14 13 14 17 13 6 14 16 8 12 11 16 16 12 15 14 14 15 13 14 20 20 21 13 18 37 10 15 14 13
13 14 14 14 15 16 17 18 19 22 24 5 6 5 7 10 12 9 6 12 11 13 14 11 5 13 14 9 14 14 13 15 20 15 16 15 13 17 18 19 12 19 15 12 11 10 7
12 13 14 12 14 14 15 17 17 16 17 10 6 6 7 10 11 10 14 14 15 15 15 17 15 15 11 16 19 15 14 17 19 5 6 12 14 15 15 13 18 12 8 6 8 8 5
11 13 12 13 12 13 14 14 16 14 16 10 4 5 6 9 12 15 11 13 17 16 17 18 13 8 12 14 13 13 13 16 13 6 8 9 12 10 10 12 11 11 6 6 8 13 7
11 12 12 12 12 12 12 12 13 13 14 11 4 5 3 8 7 17 15 16 13 12 13 16 9 10 11 10 13 19 13 18 14 11 9 8 10 3 9 12 18 10 14 7 1 9 11
12 12 12 12 12 13 13 11 10 11 12 11 3 2 9 9 13 11 12 15 12 13 11 16 12 9 9 11 11 14 17 28 17 24 19 12 12 11 10 10 10 7 10 10 11 4 8
13 13 13 13 13 12 13 12 10 9 10 10 7 3 7 9 16 19 11 11 11 11 12 9 10 8 10 10 7 8 11 9 9 15 24 21 14 11 14 14 13 18 17 14 8 9 9
14 14 14 14 13 12 12 12 10 10 8 9 6 1 2 6 14 23 23 22 22 22 14 8 15 12 6 6 4 4 2 9 11 6 9 13 11 17 17 15 14 18 11 13 10 9 8
Wind_Direction
25 22 19 18 13 8 5 2 358 354 352 351 350 348 345 339 334 330 327 324 320 315 309 302 297 299 275 227 252 115 155 165 191 218 230 217 222 224 230 215 208 226 223 219 244 170 212
23 20 17 15 11 6 4 1 357 352 351 347 345 344 341 336 330 328 323 320 316 312 304 289 278 284 244 254 79 131 155 169 206 216 221 228 227 235 274 228 208 194 213 200 183 203 201
20 17 15 12 9 5 3 0 355 352 349 345 343 339 338 333 329 326 322 319 316 312 297 270 247 246 266 259 24 143 171 191 212 217 237 229 298 226 245 222 213 215 203 198 212 199 190
17 16 12 11 9 6 2 358 354 351 347 344 341 336 335 331 328 324 321 318 314 308 297 226 215 243 271 107 220 186 189 192 193 225 273 164 241 255 252 122 188 215 215 197 174 178 158
14 16 10 7 5 4 358 356 353 349 346 343 339 334 331 329 326 323 320 315 303 297 267 184 212 231 257 121 207 200 196 175 178 188 198 219 239 233 215 221 209 214 215 217 150 184 165
13 14 9 5 1 358 354 353 350 347 344 341 337 333 330 326 324 321 320 299 298 271 214 212 266 260 241 215 187 182 196 223 186 187 195 216 218 224 231 219 215 199 233 201 172 179 181
12 10 7 4 1 358 352 350 348 346 342 339 336 332 328 324 321 320 320 228 211 186 217 240 212 232 153 152 117 198 190 211 207 197 217 200 222 215 214 223 250 303 200 193 258 158 207
10 8 5 3 359 355 349 348 345 342 339 336 334 331 327 323 319 317 282 283 345 342 289 241 245 239 258 196 198 201 182 202 208 219 214 211 230 246 238 216 244 259 248 193 82 140 236
9 6 4 360 357 353 351 346 343 340 336 334 332 329 327 322 318 286 294 287 308 320 265 264 225 222 218 213 232 193 193 209 203 225 208 239 226 210 225 228 225 231 238 140 220 184 226
5 5 3 356 354 353 350 347 343 339 335 332 330 328 329 327 289 335 289 17 262 323 272 204 199 229 211 198 228 238 188 218 228 234 229 229 248 223 208 219 215 212 229 165 136 199 209
7 3 360 356 357 354 349 346 341 337 333 330 328 327 323 317 315 276 24 319 324 252 273 124 140 119 193 197 169 200 185 216 231 214 232 219 229 199 213 222 194 253 160 212 181 225 224
4 3 1 356 357 351 348 345 340 336 333 329 326 323 325 244 209 265 297 279 260 235 244 166 163 198 203 206 222 172 189 221 231 241 227 260 203 200 218 215 199 130 175 193 218 243 229
2 359 357 355 353 349 345 343 340 337 333 330 327 318 311 294 288 347 314 227 227 247 108 211 192 193 204 196 207 169 192 200 220 218 209 223 201 224 267 184 168 197 187 209 215 217 237
357 355 353 352 350 347 344 343 341 338 335 330 327 313 187 247 297 283 251 228 243 270 238 63 302 183 209 200 210 186 201 206 218 214 200 208 194 185 207 202 181 212 199 258 265 268 158
355 352 351 351 348 347 345 345 343 340 337 332 319 277 244 177 237 248 235 229 227 251 298 301 244 247 210 218 212 200 209 215 198 215 243 202 215 175 199 218 207 199 233 302 302 234 269
348 348 352 350 348 346 346 345 343 342 337 329 313 285 88 345 197 228 234 245 260 261 307 293 267 253 234 208 210 210 203 216 214 208 242 276 156 170 180 232 240 281 210 209 231 260 260
346 347 347 346 348 344 345 345 345 344 338 321 255 273 96 103 205 228 239 240 239 264 232 272 272 270 273 277 212 221 222 210 220 198 215 243 254 178 161 207 206 205 237 243 317 209 280
343 343 343 343 347 344 345 346 346 344 341 327 292 282 114 188 250 234 245 240 259 287 282 223 271 296 289 298 297 221 232 229 195 225 210 219 247 223 201 216 234 295 208 222 226 228 312
345 344 341 342 341 345 346 345 345 343 353 318 297 288 139 240 267 278 250 244 278 268 265 266 241 255 262 263 275 267 257 224 181 218 205 209 217 233 205 170 211 243 248 180 229 335 215
342 342 343 343 348 345 348 347 344 339 339 319 282 293 187 236 265 307 303 301 278 236 248 268 266 264 265 263 268 270 247 158 187 209 57 257 214 233 194 218 203 206 229 212 220 227 250
337 338 342 344 345 348 350 348 345 340 333 308 301 25 17 303 329 336 295 287 293 286 286 242 250 259 257 258 256 251 247 174 187 148 213 221 217 239 245 218 277 209 228 192 217 221 242
337 336 338 344 346 351 350 348 352 345 333 260 331 340 347 289 279 283 276 261 277 284 314 285 341 292 319 279 259 273 345 296 194 189 220 209 229 238 239 244 239 200 208 207 223 234 262
335 332 335 341 343 349 351 351 357 355 340 350 7 329 279 293 272 278 318 357 324 329 290 263 351 317 284 326 325 303 308 301 293 194 205 201 224 236 242 240 239 248 245 234 236 238 251
330 328 333 337 340 345 346 350 353 358 353 316 42 306 283 292 306 316 340 305 298 296 297 304 305 288 324 322 305 273 252 253 233 168 224 210 221 230 232 246 238 226 255 256 244 250 268
319 320 324 328 329 333 340 345 348 354 342 313 48 336 322 295 323 296 340 322 305 288 262 260 271 336 323 293 274 244 229 248 241 236 187 245 231 217 221 217 210 147 183 209 230 256 267
309 314 317 319 320 322 328 338 340 344 337 307 74 294 275 304 57 337 314 287 283 311 305 260 234 1 288 275 259 246 210 252 241 212 197 244 266 31 229 216 235 226 192 174 183 249 245
305 306 308 311 318 323 322 321 329 332 334 314 317 344 280 285 270 338 323 322 317 318 301 297 351 299 241 261 262 269 252 182 227 210 217 220 232 194 223 245 236 146 145 157 208 219 105
297 299 303 307 310 308 312 315 316 319 328 315 322 68 317 305 293 284 310 291 296 268 274 347 301 186 272 256 256 236 280 282 280 224 199 189 205 217 222 224 248 142 170 195 100 121 130
292 294 297 299 298 301 301 302 301 307 309 313 293 116 262 265 293 303 285 274 268 274 294 297 306 305 328 302 330 339 133 305 352 287 24 274 212 205 196 213 138 164 180 117 136 140 139